Theta_e
306 308 307 306 305 305 306 306 304 304 302 304 304 304 303 301 301 300 300 299 298 296 295 294 294 293 292 292 291 294 294 294 294 294 295 295 295 295 294 292 291 291 292 294
307 308 305 304 304 305 305 305 305 303 302 303 304 304 302 301 301 301 300 298 297 296 296 295 294 293 293 292 291 293 293 293 293 293 294 294 294 294 293 291 290 290 290 291
308 306 303 304 304 304 305 306 305 306 302 303 304 305 302 300 299 298 298 297 296 295 295 294 293 293 293 292 291 292 293 292 292 292 292 291 292 292 291 289 289 289 289 289
306 304 303 304 304 304 304 303 304 303 304 307 304 312 304 302 299 298 297 297 296 294 293 293 292 292 292 292 291 291 292 292 291 290 290 290 290 290 290 290 289 288 288 287
305 304 304 304 304 303 307 303 304 303 304 304 303 304 305 303 301 299 298 297 295 294 293 292 291 291 291 291 292 292 292 290 289 289 289 289 289 289 289 289 289 288 287 286
303 302 303 304 303 303 303 303 303 303 303 308 305 303 306 303 302 301 299 296 295 293 292 292 291 291 291 292 292 291 290 288 288 288 288 288 288 288 288 287 288 288 287 286
303 303 302 303 303 302 302 303 317 316 310 313 301 302 304 304 302 302 299 296 294 293 292 292 291 291 291 291 290 289 288 288 287 287 287 286 286 286 286 286 286 287 287 286
306 305 303 303 304 304 303 303 321 318 315 309 299 304 303 301 301 301 299 296 293 292 292 291 291 291 291 289 288 288 287 286 286 285 285 284 284 284 284 284 284 284 285 285
306 306 300 300 301 302 303 301 300 306 296 304 305 302 300 298 298 296 295 294 293 292 292 291 291 290 289 287 286 286 286 285 284 284 283 283 282 282 282 282 282 282 283 283
304 305 300 299 300 300 301 298 301 305 310 310 306 302 303 299 298 296 295 294 293 292 291 291 290 288 287 286 285 285 284 283 283 282 282 281 281 281 280 280 280 280 281 281
302 307 301 300 301 302 300 302 300 301 303 311 311 308 301 302 300 298 296 295 293 292 291 290 289 287 285 285 284 284 283 282 281 281 281 280 280 279 279 279 278 278 279 279
301 306 304 302 297 296 301 301 302 311 307 299 302 306 297 300 301 299 297 295 293 292 291 289 288 286 285 284 283 282 282 281 280 279 279 279 278 278 277 277 278 278 278 279
301 308 308 303 297 296 298 299 299 298 303 303 308 307 295 295 297 299 297 294 292 291 289 288 287 286 285 283 282 281 280 279 279 278 277 276 276 275 275 275 276 277 278 278
299 306 316 316 309 302 298 298 299 299 305 306 304 307 297 296 297 297 296 293 291 290 289 288 287 286 284 282 280 278 277 276 276 275 274 272 272 272 272 272 272 274 276 277
301 306 298 298 295 297 300 299 300 299 300 305 305 305 303 300 297 296 295 292 291 290 289 288 287 285 283 281 277 275 274 273 273 272 271 270 270 270 270 270 270 271 273 275
296 305 296 298 295 294 295 296 298 300 300 300 301 301 299 301 296 295 293 292 291 290 289 288 286 285 282 279 276 274 272 271 271 270 270 270 270 270 270 270 270 270 271 273
299 301 303 309 293 294 300 293 296 299 299 300 301 301 300 296 297 295 293 291 291 290 288 287 285 282 281 276 274 273 271 270 271 270 270 270 269 269 269 269 269 269 270 271
303 305 307 309 298 311 305 292 294 297 299 298 299 300 298 296 295 295 293 291 291 289 287 285 282 279 277 274 273 271 270 270 270 270 270 269 269 269 269 269 268 268 270 271
296 305 305 309 306 307 305 296 294 296 298 297 298 298 295 290 290 290 292 291 290 288 285 282 279 277 275 273 271 271 270 270 270 270 269 269 268 269 268 267 267 269 269 270
292 296 308 300 308 312 299 291 293 295 297 296 297 297 297 289 294 298 289 289 286 282 279 277 276 274 273 272 271 270 269 270 270 270 269 269 268 268 267 267 268 268 269 270
294 295 305 307 307 308 301 290 292 299 306 294 296 296 293 292 296 292 286 284 280 277 275 275 274 273 272 271 270 269 269 269 270 269 269 269 269 268 268 268 268 268 269 270
299 300 301 304 305 307 291 289 298 300 290 291 293 295 290 288 285 284 282 279 276 273 273 273 272 271 270 270 269 269 270 270 269 269 269 269 269 268 267 268 268 269 269 270
303 304 302 303 305 295 291 299 293 292 294 289 292 290 290 285 284 283 281 279 276 274 273 272 271 269 269 270 270 271 270 270 269 269 269 269 269 268 268 268 268 269 269 271
293 296 299 299 300 294 291 293 291 289 292 289 289 289 287 286 284 283 281 279 276 275 273 271 271 271 269 269 269 270 269 269 269 269 269 269 269 269 268 268 268 269 269 270
297 293 297 296 293 290 291 291 292 288 286 286 287 288 287 285 283 282 280 278 276 275 273 271 271 271 270 269 268 269 269 269 269 269 269 268 268 269 268 268 268 268 269 269
291 295 297 301 299 298 299 293 291 288 287 286 286 285 285 284 282 281 279 277 275 274 272 271 270 271 270 269 268 269 269 269 269 269 268 268 268 268 268 268 269 269 268 268
Wind_Speed
2 4 6 11 1 3 3 6 10 9 3 4 8 10 11 10 9 8 7 5 4 2 2 4 6 8 9 10 12 14 17 20 20 18 20 19 18 19 19 24 27 28 27 27
3 3 5 4 3 5 7 11 8 6 1 4 8 9 9 11 9 8 7 6 3 1 3 5 6 6 7 9 11 13 17 19 19 18 18 18 18 18 20 23 25 27 30 28
2 7 7 6 7 9 3 4 9 5 7 1 8 9 13 11 9 8 6 4 3 1 2 5 8 8 8 9 10 11 15 17 17 19 18 19 17 18 23 25 25 27 28 30
4 5 6 7 6 1 5 1 6 10 10 3 6 4 14 16 14 12 11 9 6 2 1 5 8 9 8 8 8 9 13 15 16 17 18 19 19 19 20 20 22 23 26 30
4 7 7 7 4 1 4 3 4 2 2 2 8 5 1 16 16 17 14 10 7 3 1 4 6 8 6 7 8 9 11 13 15 16 18 19 20 19 18 21 22 24 26 29
5 2 2 4 7 2 13 9 7 3 1 4 8 7 8 11 21 17 15 12 9 5 1 2 5 5 5 6 7 8 10 12 14 15 17 18 19 19 20 23 23 24 25 26
5 4 2 7 9 7 3 7 2 2 3 4 3 5 11 15 4 17 17 13 10 6 3 1 3 4 5 6 7 8 10 12 14 15 16 17 19 18 18 20 21 22 24 25
9 5 12 9 2 3 11 3 3 5 4 1 3 7 4 2 8 5 13 12 10 7 4 2 2 3 4 5 7 8 9 10 13 14 15 16 17 17 17 18 20 19 21 22
8 4 4 2 2 1 5 6 3 4 2 2 6 5 5 8 10 12 13 12 11 8 6 5 4 2 3 4 6 7 8 10 11 12 13 15 16 18 18 18 18 19 20 22
6 6 2 4 3 3 2 5 3 2 4 5 5 6 9 13 18 17 17 16 12 10 8 7 5 3 2 2 4 6 7 9 10 11 12 13 15 16 16 17 19 20 21 22
7 3 5 5 11 12 5 4 4 3 3 4 4 4 2 14 18 21 19 16 14 11 9 8 7 5 3 1 3 5 6 8 9 11 12 12 14 15 16 17 19 20 21 23
3 3 5 5 3 3 7 6 9 4 6 2 2 8 1 3 11 16 16 15 13 11 10 10 8 7 4 1 2 4 6 8 10 11 12 13 14 15 16 19 21 22 23 24
9 4 4 2 2 3 7 12 8 2 2 8 4 5 2 5 7 12 15 15 13 12 11 11 10 8 5 2 1 4 6 9 10 12 13 14 15 16 18 21 22 22 24 24
4 2 4 9 3 6 7 15 19 10 5 6 17 11 6 9 11 14 15 16 15 14 13 11 11 10 7 3 1 4 6 9 11 12 14 15 16 17 20 23 24 23 21 23
4 5 3 3 3 3 4 8 18 19 23 12 20 18 20 15 14 16 13 14 15 14 14 12 11 12 9 5 1 5 9 10 11 12 14 16 18 19 21 23 23 22 20 20
3 3 2 3 4 5 5 12 16 23 18 24 25 22 6 5 12 12 15 15 15 14 13 12 13 12 10 6 2 5 9 9 9 11 14 16 19 22 22 22 22 21 20 18
8 7 4 5 3 6 8 20 25 18 13 22 20 29 5 7 15 17 17 17 17 16 15 13 14 13 10 7 2 4 5 6 9 11 13 16 19 21 22 23 22 22 20 20
10 7 2 2 2 10 3 3 12 23 22 24 17 9 10 8 9 6 13 18 16 16 15 16 17 15 11 8 3 1 1 5 8 10 13 16 19 20 21 22 23 21 20 19
6 6 5 4 7 13 17 8 9 13 16 27 25 23 9 7 6 7 11 14 15 15 20 20 20 19 14 8 5 4 1 3 6 9 12 15 17 18 21 21 21 20 20 19
2 5 8 4 5 8 4 2 5 8 11 18 24 24 18 14 8 10 16 13 15 21 24 26 22 18 14 10 8 6 3 2 5 8 10 13 14 16 18 17 17 18 17 17
5 3 14 11 8 9 5 10 6 6 5 3 14 17 17 13 6 5 17 14 21 25 27 25 22 18 14 12 10 8 5 2 4 6 8 10 12 13 14 15 14 15 16 16
13 12 7 7 8 17 12 7 9 3 1 1 3 12 17 10 11 13 14 16 22 23 24 24 22 18 16 14 11 9 6 4 3 5 6 8 11 11 11 13 13 13 15 15
8 8 9 14 9 3 23 3 8 1 3 4 5 10 15 14 11 16 16 17 22 24 22 22 19 17 17 16 11 10 8 6 4 5 5 7 9 10 10 10 12 12 14 16
7 6 5 4 11 8 14 11 2 4 1 3 5 13 16 15 17 15 15 14 21 22 22 21 19 17 16 15 12 11 11 9 6 6 4 5 7 9 9 8 9 10 13 16
6 14 11 8 6 3 10 15 12 9 5 5 8 10 15 17 15 17 15 17 21 22 22 23 20 19 18 16 15 15 13 11 8 6 4 3 4 6 7 8 8 8 8 12
8 10 11 9 13 13 6 17 17 14 14 11 13 12 11 16 17 17 12 21 24 24 23 22 21 20 20 20 18 16 14 12 10 7 3 1 1 3 5 8 9 7 8 9
Wind_Direction
66 201 177 178 348 307 221 171 141 123 127 149 171 163 170 173 184 180 170 161 124 82 69 22 17 15 10 20 22 20 15 12 11 6 2 356 353 354 357 4 4 1 2 6
185 175 115 111 129 142 171 152 127 106 115 222 176 186 188 191 193 198 183 170 149 72 32 17 359 3 6 16 20 15 11 8 8 3 358 360 2 0 360 359 359 0 358 357
216 119 142 156 137 130 87 209 161 139 148 162 185 224 202 200 193 192 200 174 180 113 26 21 11 3 1 12 14 6 6 4 6 2 1 4 6 8 5 2 359 358 -0 2
86 147 158 156 143 258 171 105 139 141 181 231 204 286 197 193 203 201 189 194 176 162 56 10 1 1 359 4 6 0 -0 3 3 5 7 6 3 7 359 353 350 356 360 3
97 155 160 168 88 19 101 126 86 96 226 299 194 255 17 178 210 207 196 189 181 167 66 359 0 359 7 10 3 358 357 4 7 8 9 6 3 2 357 353 352 355 358 3
77 28 351 75 72 92 135 120 84 77 315 250 217 216 200 188 222 206 192 191 177 173 182 15 12 14 28 19 2 2 3 9 9 7 9 11 5 1 360 356 356 354 352 354
135 136 105 161 101 124 200 168 143 219 199 254 139 216 263 194 209 202 188 188 181 173 181 12 20 33 41 23 11 10 8 11 11 10 13 12 10 6 6 2 355 354 349 350
169 197 178 168 279 186 193 213 243 256 218 123 167 230 243 240 149 188 178 180 176 180 165 161 93 63 48 26 16 12 9 11 11 10 13 11 16 9 7 3 0 359 352 344
185 130 101 89 109 354 173 215 54 97 89 280 214 255 204 170 184 185 184 186 191 180 178 170 141 105 56 30 16 12 11 12 10 11 12 11 13 10 5 3 1 0 356 349
155 112 208 116 141 89 263 131 138 207 237 249 196 257 242 197 202 198 200 200 194 183 178 172 164 155 97 36 15 10 10 11 4 9 13 8 7 6 2 2 359 359 354 350
157 143 140 165 205 179 161 200 208 287 221 251 286 233 160 199 201 199 202 196 192 188 184 177 175 165 138 94 28 3 2 7 4 6 8 3 2 358 358 356 355 354 352 349
146 86 162 187 74 2 250 228 182 218 189 236 315 262 180 158 186 194 193 190 185 183 177 178 183 179 169 149 31 359 4 3 358 356 356 355 353 349 348 345 347 347 347 348
178 174 135 163 187 182 213 208 224 73 6 202 222 247 176 181 197 188 184 178 176 178 174 180 185 191 185 181 31 358 2 353 346 344 344 343 343 339 334 331 334 336 338 342
141 157 216 235 65 122 196 198 201 194 212 229 229 252 194 197 190 185 186 181 179 181 181 185 191 188 185 178 49 356 349 345 339 338 339 340 340 336 331 328 326 327 330 331
184 201 174 235 204 210 234 206 202 207 222 217 254 225 239 201 189 194 183 176 179 183 186 188 190 188 188 186 222 325 337 337 342 341 346 353 350 346 343 339 335 330 328 327
180 165 145 252 208 230 245 244 237 225 228 245 254 263 212 207 187 183 187 183 184 185 183 181 183 182 182 172 223 324 330 341 352 0 357 359 356 353 353 350 348 343 339 335
161 147 155 259 6 313 256 223 225 220 210 222 230 241 147 179 185 191 187 187 187 182 176 174 175 172 175 170 177 314 327 351 7 5 359 1 359 359 357 355 353 351 347 339
152 139 121 284 357 258 314 144 236 226 231 223 247 240 187 187 194 182 193 187 183 173 170 168 169 164 162 173 190 267 326 1 16 10 4 3 0 0 359 2 358 353 344 342
322 134 158 224 200 293 292 213 191 188 238 232 228 233 186 134 136 226 187 187 179 166 162 160 162 172 171 171 176 179 183 21 27 19 8 3 1 3 4 2 357 350 345 343
20 5 190 158 218 251 60 181 97 131 274 222 213 226 195 154 209 227 165 158 143 143 148 151 165 166 168 171 173 177 177 73 39 28 14 6 4 8 0 356 354 348 348 346
153 163 208 201 229 268 170 158 164 161 257 339 205 205 166 189 209 108 139 132 140 145 149 159 163 166 170 172 174 184 167 118 57 42 27 12 14 12 356 351 353 354 353 354
172 170 190 207 212 254 139 125 194 185 91 224 204 181 171 140 121 128 134 134 139 139 144 160 161 166 172 173 178 183 177 143 92 63 42 24 24 17 0 354 356 1 1 0
204 198 171 192 213 118 180 169 189 127 141 194 148 149 156 141 155 152 150 150 151 151 154 162 163 163 175 180 187 185 177 155 128 89 64 38 32 22 7 356 1 6 8 4
236 187 226 146 214 203 206 219 148 179 225 154 136 157 152 151 155 149 148 152 155 160 161 163 162 166 173 184 187 182 171 163 148 114 83 48 37 24 1 2 6 8 9 3
177 154 194 255 246 298 239 224 208 196 162 155 148 157 163 147 158 151 153 158 160 162 160 168 168 169 176 179 185 179 176 167 155 138 114 61 33 19 358 347 350 2 2 1
185 179 188 215 197 210 228 205 196 182 190 171 155 155 160 159 157 153 154 161 160 160 160 167 174 171 176 183 187 183 182 176 162 154 149 138 43 356 343 338 339 338 337 341